Location: Cruquius
(52.3348°N, 4.6319°E)
Time: 20:36:11
(UTC+00:00)

DNEPR-1 R/B - Pass Details

Date: 12 May 2021
Orbit: 587 x 1334 km, 64.6° (Epoch: 21 June)

Event Time Altitude Azimuth Distance (km) Brightness Sun altitude
Exits shadow 22:54:02 17° 220° (SW) 2,031 5.8 -18.6°
Maximum altitude 22:58:29 87° 135° (SE) 770 3.9 -18.8°
Drops below altitude 10° 23:03:18 10° 44° (NE) 2,123 6.8 -18.9°
Sets 23:05:26 0° 44° (NE) 2,971 7.6 -18.9°
